Location: Poughquag
(41.6090°N, 73.6820°W)
Time: 09:21:45
(UTC-05:00)

DIWATA 2B (PO-101) - Pass Details

Date: 19 November 2025
Orbit: 563 x 574 km, 98.1° (Epoch: 07 December)

Event Time Altitude Azimuth Distance (km) Brightness Sun altitude
Rises 03:47:32 0° 114° (ESE) 2,763 ? -33.7°
Reaches altitude 10° 03:51:09 10° 79° (E) 1,869 ? -33.0°
Maximum altitude 03:52:21 11° 62° (ENE) 1,796 ? -32.8°
Drops below altitude 10° 03:53:33 10° 45° (NE) 1,871 ? -32.6°
Enters shadow 03:55:39 - 21° (NNE) 2,306 ? -32.2°
